Location: Borgo
(42.3939°N, 9.2791°E)
Time: 01:06:36
(UTC+00:00)

Cosmos 1844 Rocket - Pass Details

Date: 24 January 2021
Orbit: 826 x 843 km, 71.0° (Epoch: 08 March)

Event Time Altitude Azimuth Distance (km) Brightness Sun altitude
Rises 16:57:54 0° 198° (SSW) 3,385 6.4 -6.1°
Reaches altitude 10° 17:00:20 10° 197° (SSW) 2,453 5.7 -6.6°
Maximum altitude 17:05:57 78° 112° (ESE) 862 2.7 -7.5°
Drops below altitude 10° 17:11:36 10° 27° (NNE) 2,462 4.7 -8.5°
Sets 17:14:03 0° 26° (NNE) 3,398 5.4 -9.0°
